North Las Vegas, NV

10:56 AM PST on February 10, 2016 (GMT -0800)
North Las Vegas

Weather History for KVGT - May, 2014

Change the Weather History Date:

Monday, May 12, 2014

  Actual Average Record
Temperature  
Mean Temperature 71 °F -  
Max Temperature 82 °F 88 °F 103 °F (1960)
Min Temperature 60 °F 62 °F 43 °F (1953)
Cooling Degree Days 6    
Growing Degree Days 21 (Base 50)    
Moisture  
Dew Point 15 °F    
Average Humidity 13    
Maximum Humidity 20    
Minimum Humidity 6    
Precipitation  
Precipitation 0.00 in - - ()
Sea Level Pressure  
Sea Level Pressure 30.09 in    
Wind  
Wind Speed 8 mph (NNE)    
Max Wind Speed 20 mph    
Max Gust Speed 29 mph    
Visibility 10 miles    
Events      
Averages and records for this station are not official NWS values.
T = Trace of Precipitation, MM = Missing Value Source: NWS Daily Summary

Daily Weather History Graph

Daily Weather History Graph

Search for Another Location

Airport or City:

Trip Planner

Search our weather history database for the weather conditions in past years. The results will help you decide how hot, cold, wet, or windy it might be!

Date:

Astronomy

May. 12, 2014 Rise Set
Actual Time 5:36 AM PDT 7:37 PM PDT
Civil Twilight 5:08 AM PDT 8:06 PM PDT
Nautical Twilight 4:34 AM PDT 8:40 PM PDT
Astronomical Twilight 3:56 AM PDT 9:18 PM PDT
Moon 5:43 PM PDT (5/12) 4:14 AM PDT (5/12)
Length of Visible Light 14h 57m
Length of Day
14h 00m
Waxing Gibbous, 95% of the Moon is Illuminated
May 12
Waxing Gibbous
May 14
Full
May 21
Last Quarter
May 28
New
Jun 5
First Quarter

Hourly Weather History & Observations

Time (PDT) Temp. Dew Point Humidity Pressure Visibility Wind Dir Wind Speed Gust Speed Precip Events Conditions
12:53 AM 64.0 °F 18.0 °F 17% 30.05 in 10.0 mi ENE 3.5 mph - N/A   Clear
1:53 AM 63.0 °F 19.0 °F 18% 30.06 in 10.0 mi North 6.9 mph - N/A   Clear
2:53 AM 62.1 °F 19.0 °F 19% 30.05 in 10.0 mi North 10.4 mph - N/A   Clear
3:53 AM 63.0 °F 19.0 °F 18% 30.05 in 10.0 mi NNW 12.7 mph - N/A   Clear
4:53 AM 61.0 °F 19.0 °F 20% 30.06 in 10.0 mi North 12.7 mph - N/A   Clear
5:53 AM 60.1 °F 19.0 °F 20% 30.09 in 10.0 mi North 12.7 mph - N/A   Clear
6:53 AM 62.6 °F 19.4 °F 19% 30.10 in 10.0 mi North 11.5 mph 21.9 mph N/A   Clear
7:53 AM 66.0 °F 19.0 °F 17% 30.14 in 10.0 mi North 12.7 mph - N/A   Clear
8:53 AM 68.0 °F 17.1 °F 14% 30.15 in 10.0 mi East 8.1 mph - N/A   Clear
9:53 AM 70.0 °F 17.1 °F 13% 30.14 in 10.0 mi Variable 3.5 mph - N/A   Clear
10:53 AM 73.0 °F 15.1 °F 11% 30.13 in 10.0 mi Variable 6.9 mph - N/A   Clear
11:53 AM 75.0 °F 15.1 °F 10% 30.12 in 10.0 mi NNE 6.9 mph - N/A   Clear
12:53 PM 75.0 °F 10.9 °F 9% 30.11 in 10.0 mi Calm Calm - N/A   Clear
1:53 PM 78.1 °F 10.0 °F 7% 30.09 in 10.0 mi North 9.2 mph 17.3 mph N/A   Clear
2:53 PM 80.1 °F 8.1 °F 6% 30.07 in 10.0 mi North 9.2 mph 23.0 mph N/A   Clear
3:53 PM 80.6 °F 6.8 °F 6% 30.04 in 10.0 mi North 9.2 mph - N/A   Clear
4:53 PM 82.0 °F 7.0 °F 6% 30.02 in 10.0 mi NNW 16.1 mph 25.3 mph N/A   Clear
5:53 PM 79.0 °F 8.1 °F 7% 30.02 in 10.0 mi ESE 4.6 mph - N/A   Clear
6:53 PM 79.0 °F 8.1 °F 7% 30.02 in 10.0 mi ESE 6.9 mph - N/A   Clear
7:53 PM 75.2 °F 8.6 °F 8% 30.03 in 10.0 mi East 6.9 mph - N/A   Clear
8:53 PM 72.0 °F 14.0 °F 11% 30.06 in 10.0 mi ESE 5.8 mph - N/A   Clear
9:53 PM 72.0 °F 19.9 °F 14% 30.12 in 10.0 mi East 11.5 mph - N/A   Clear
10:53 PM 71.6 °F 19.4 °F 14% 30.15 in 10.0 mi ENE 18.4 mph 27.6 mph N/A   Clear
11:53 PM 69.1 °F 17.1 °F 14% 30.19 in 10.0 mi ENE 19.6 mph 28.8 mph N/A   Clear